OK1CMJ-5 Weather Reports


Display with metric or nautical units.
time (UTC)temp
F
wind
direction
speed
MPH
gust
MPH
rain 1hr
in
rain 24hr
in
rain mn
in
humidity
%
barometer
mb
20260904055952 66 342 1.0 4.0 0.00 0.00 0.00 47 1021.1
20260904054152 65 7 0.0 5.0 0.00 0.00 0.00 48 1021.6
20260904051452 64 320 1.0 3.0 0.00 0.00 0.00 49 1021.6
20260904050552 63 282 1.0 4.0 0.00 0.00 0.00 50 1021.6
20260904045652 63 323 2.0 4.0 0.00 0.00 0.00 51 1021.3
20260904044752 62 256 2.0 4.0 0.00 0.00 0.00 52 1021.3
20260904042952 61 308 1.0 3.0 0.00 0.00 0.00 53 1021.4
20260904041152 61 320 1.0 3.0 0.00 0.00 0.00 52 1021.5
20260904040252 62 311 0.0 4.0 0.00 0.00 0.00 51 1021.5
20260904035352 62 131 1.0 3.0 0.00 0.00 0.00 52 1021.5
20260904034452 62 234 1.0 4.0 0.00 0.00 0.00 52 1021.6
20260904033552 62 258 1.0 4.0 0.00 0.00 0.00 53 1021.6
20260904032652 62 285 1.0 3.0 0.00 0.00 0.00 52 1021.8
20260904031752 62 241 1.0 4.0 0.00 0.00 0.00 52 1021.8
20260904030852 62 283 1.0 6.0 0.00 0.00 0.00 52 1021.7
20260904025952 62 317 0.0 4.0 0.00 0.00 0.00 51 1021.6
20260904025052 62 246 1.0 4.0 0.00 0.00 0.00 51 1021.9
20260904024152 62 331 1.0 3.0 0.00 0.00 0.00 50 1021.9
20260904023252 62 303 1.0 3.0 0.00 0.00 0.00 50 1021.9
20260904022352 62 316 0.0 4.0 0.00 0.00 0.00 50 1021.8
20260904021452 62 311 1.0 3.0 0.00 0.00 0.00 49 1021.8
20260904020552 62 315 1.0 3.0 0.00 0.00 0.00 49 1021.7
20260904015652 62 307 1.0 4.0 0.00 0.00 0.00 48 1021.6
20260904014752 63 320 2.0 4.0 0.00 0.00 0.00 47 1021.6
20260904011152 63 322 0.0 5.0 0.00 0.00 0.00 47 1022.0
20260904010252 63 315 1.0 3.0 0.00 0.00 0.00 47 1022.0
20260904004452 64 303 0.0 5.0 0.00 0.00 0.00 47 1022.2
20260904003552 64 314 1.0 5.0 0.00 0.00 0.00 47 1021.9
20260904002652 64 267 1.0 8.0 0.00 0.00 0.00 47 1022.2
20260904001752 63 247 1.0 4.0 0.00 0.00 0.00 48 1022.2
20260904000852 63 264 1.0 4.0 0.00 0.00 0.00 49 1022.1
20260903235952 63 286 0.0 2.0 0.00 0.00 0.00 50 1022.1
20260903235052 63 270 0.0 2.0 0.00 0.00 0.00 50 1022.3
20260903234152 62 270 0.0 2.0 0.00 0.00 0.00 51 1022.5
20260903233252 62 312 0.0 2.0 0.00 0.00 0.00 51 1022.7
20260903232352 62 331 0.0 2.0 0.00 0.00 0.00 51 1022.6
20260903231452 62 320 0.0 3.0 0.00 0.00 0.00 51 1022.6
20260903230552 62 328 1.0 3.0 0.00 0.00 0.00 52 1022.6
20260903225652 62 314 1.0 4.0 0.00 0.00 0.00 52 1022.4
20260903224752 62 354 1.0 4.0 0.00 0.00 0.00 52 1022.5
20260903222952 62 354 1.0 4.0 0.00 0.00 0.00 51 1022.3
20260903220252 62 278 2.0 6.0 0.00 0.00 0.00 52 1022.5
20260903215352 62 293 1.0 5.0 0.00 0.00 0.00 52 1022.6
20260903214452 62 277 1.0 4.0 0.00 0.00 0.00 52 1022.6
20260903210852 62 270 1.0 3.0 0.00 0.00 0.00 53 1022.9
20260903205952 62 233 1.0 4.0 0.00 0.00 0.00 52 1022.8
20260903205052 62 268 0.0 6.0 0.00 0.00 0.00 52 1022.7
20260903204152 62 280 2.0 6.0 0.00 0.00 0.00 51 1022.8
20260903203252 62 298 1.0 3.0 0.00 0.00 0.00 51 1022.6
20260903201452 63 294 2.0 4.0 0.00 0.00 0.00 51 1022.7
20260903200552 63 321 1.0 2.0 0.00 0.00 0.00 50 1022.6
20260903195651 63 1 1.0 4.0 0.00 0.00 0.00 51 1022.8
20260903194751 63 297 0.0 4.0 0.00 0.00 0.00 52 1022.5
20260903193852 62 320 2.0 4.0 0.00 0.00 0.00 54 1022.7
20260903192952 62 353 2.0 5.0 0.00 0.00 0.00 56 1022.8
20260903192051 62 319 0.0 4.0 0.00 0.00 0.00 58 1022.8
20260903190252 61 299 1.0 3.0 0.00 0.00 0.00 62 1022.9
20260903183551 61 313 2.0 7.0 0.00 0.00 0.00 60 1023.2
20260903182652 61 314 1.0 8.0 0.00 0.00 0.00 60 1023.0
20260903181752 61 311 1.0 8.0 0.00 0.00 0.00 57 1023.1
20260903180852 62 284 2.0 8.0 0.00 0.00 0.00 54 1022.8
20260903175952 62 283 1.0 8.0 0.00 0.00 0.00 48 1022.7
20260903175051 62 304 2.0 8.0 0.00 0.00 0.00 46 1022.6
20260903174152 63 296 2.0 8.0 0.00 0.00 0.00 43 1022.4
20260903170552 65 299 1.0 7.0 0.00 0.00 0.00 29 1022.8
20260903165652 65 318 1.0 5.0 0.00 0.00 0.00 26 1022.9
20260903163852 66 304 1.0 6.0 0.00 0.00 0.00 23 1022.7
20260903162951 67 314 2.0 7.0 0.00 0.00 0.00 22 1022.7
20260903162052 68 316 2.0 7.0 0.00 0.00 0.00 20 1022.6
20260903161151 69 308 1.0 4.0 0.00 0.00 0.00 18 1022.6
20260903160252 69 305 1.0 7.0 0.00 0.00 0.00 17 1022.6
20260903155352 69 293 3.0 8.0 0.00 0.00 0.00 17 1022.5
20260903154451 69 298 3.0 8.0 0.00 0.00 0.00 16 1022.6
20260903153551 69 313 2.0 8.0 0.00 0.00 0.00 15 1022.6
20260903151751 70 311 2.0 6.0 0.00 0.00 0.00 13 1022.6
20260903150851 70 323 3.0 6.0 0.00 0.00 0.00 12 1022.5
20260903145951 71 321 1.0 6.0 0.00 0.00 0.00 12 1022.6
20260903145052 71 316 2.0 10.0 0.00 0.00 0.00 11 1022.5
20260903144151 71 335 1.0 8.0 0.00 0.00 0.00 10 1022.5
20260903143252 71 290 1.0 7.0 0.00 0.00 0.00 10 1022.5
20260903142351 72 310 1.0 7.0 0.00 0.00 0.00 10 1022.5
20260903141451 72 329 2.0 8.0 0.00 0.00 0.00 10 1022.6
20260903140551 72 302 1.0 7.0 0.00 0.00 0.00 10 1022.5
20260903135652 72 282 1.0 8.0 0.00 0.00 0.00 10 1022.6
20260903134751 72 317 2.0 8.0 0.00 0.00 0.00 10 1022.6
20260903133851 73 307 1.0 8.0 0.00 0.00 0.00 10 1022.7
20260903132051 77 318 0.0 8.0 0.00 0.00 0.00 10 1022.5
20260903131151 80 297 4.0 10.0 0.00 0.00 0.00 10 1022.5
20260903130251 79 286 4.0 10.0 0.00 0.00 0.00 10 1022.3
20260903125351 78 312 3.0 11.0 0.00 0.00 0.00 10 1022.4
20260903124451 78 326 4.0 7.0 0.00 0.00 0.00 10 1022.5
20260903123551 75 309 1.0 7.0 0.00 0.00 0.00 10 1022.3
20260903122651 74 302 1.0 9.0 0.00 0.00 0.00 10 1022.6
20260903120851 73 297 2.0 7.0 0.00 0.00 0.00 10 1022.5
20260903115051 74 304 1.0 12.0 0.00 0.00 0.00 10 1022.7
20260903114151 74 305 2.0 8.0 0.00 0.00 0.00 10 1023.1
20260903113251 75 298 1.0 9.0 0.00 0.00 0.00 10 1023.1
20260903111451 78 303 1.0 6.0 0.00 0.00 0.00 10 1023.2
20260903110551 77 312 0.0 7.0 0.00 0.00 0.00 10 1023.2
20260903105651 76 307 1.0 11.0 0.00 0.00 0.00 10 1023.3
20260903104751 77 301 2.0 8.0 0.00 0.00 0.00 10 1023.4
20260903103851 77 311 2.0 12.0 0.00 0.00 0.00 10 1023.4
20260903102951 77 325 2.0 8.0 0.00 0.00 0.00 10 1023.5
20260903102051 77 301 2.0 12.0 0.00 0.00 0.00 10 1023.5
20260903101151 76 317 2.0 9.0 0.00 0.00 0.00 10 1023.6
20260903100251 75 319 1.0 8.0 0.00 0.00 0.00 10 1023.7
20260903095352 73 313 1.0 7.0 0.00 0.00 0.00 10 1023.7
20260903094451 72 320 2.0 9.0 0.00 0.00 0.00 10 1023.8
20260903093551 72 310 2.0 10.0 0.00 0.00 0.00 10 1023.7
20260903092651 73 302 2.0 8.0 0.00 0.00 0.00 10 1023.7
20260903091751 73 300 3.0 8.0 0.00 0.00 0.00 10 1023.8
20260903090851 72 290 2.0 8.0 0.00 0.00 0.00 10 1023.6
20260903085051 74 306 2.0 7.0 0.00 0.00 0.00 10 1023.5
20260903083251 72 316 3.0 11.0 0.00 0.00 0.00 10 1023.9
20260903082351 74 337 2.0 11.0 0.00 0.00 0.00 10 1023.8
20260903075651 73 324 1.0 9.0 0.00 0.00 0.00 10 1023.9
20260903074751 73 328 2.0 9.0 0.00 0.00 0.00 10 1023.8
20260903073851 72 327 2.0 9.0 0.00 0.00 0.00 10 1023.9
20260903072951 72 312 1.0 8.0 0.00 0.00 0.00 10 1023.9
20260903070251 72 318 3.0 9.0 0.00 0.00 0.00 10 1023.7